FW6831 Weather Reports


Display with metric or nautical units.
time (UTC)temp
F
wind
direction
speed
MPH
gust
MPH
rain 1hr
in
rain 24hr
in
rain mn
in
humidity
%
barometer
mb
20260507124605 62 236 1.0 4.0 0.00 0.00 0.00 59 1018.4
20260507124045 62 323 1.0 4.0 0.00 0.00 0.00 58 1018.4
20260507123545 62 110 1.0 3.0 0.00 0.00 0.00 58 1018.4
20260507123059 62 103 1.0 3.0 0.00 0.00 0.00 60 1018.2
20260507122542 63 312 0.0 5.0 0.00 0.00 0.00 58 1018.2
20260507122045 63 181 1.0 5.0 0.00 0.00 0.00 56 1018.2
20260507121554 63 323 1.0 9.0 0.00 0.00 0.00 56 1018.1
20260507121044 64 326 1.0 9.0 0.00 0.00 0.00 56 1018.2
20260507120545 64 328 1.0 8.0 0.00 0.00 0.00 55 1018.2
20260507120056 64 143 1.0 8.0 0.00 0.00 0.00 55 1018.0
20260507115543 64 167 1.0 8.0 0.00 0.00 0.00 54 1017.7
20260507115043 64 251 2.0 9.0 0.00 0.00 0.00 55 1017.4
20260507114552 64 290 2.0 9.0 0.00 0.00 0.00 54 1017.2
20260507114046 65 318 2.0 9.0 0.00 0.00 0.00 53 1017.2
20260507113543 65 307 1.0 12.0 0.00 0.00 0.00 53 1017.5
20260507113051 65 256 2.0 12.0 0.00 0.00 0.00 52 1017.7
20260507112545 65 358 2.0 7.0 0.00 0.00 0.00 52 1017.6
20260507112043 65 242 0.0 7.0 0.00 0.00 0.00 52 1017.5
20260507111552 65 326 2.0 6.0 0.00 0.00 0.00 51 1017.5
20260507111042 65 355 2.0 5.0 0.00 0.00 0.00 52 1017.6
20260507110544 65 0 2.0 6.0 0.00 0.00 0.00 52 1017.5
20260507110052 66 264 1.0 6.0 0.00 0.00 0.00 51 1017.5
20260507105543 66 37 1.0 8.0 0.00 0.00 0.00 51 1017.4
20260507105044 66 236 1.0 8.0 0.00 0.00 0.00 50 1017.3
20260507104554 66 280 2.0 8.0 0.00 0.00 0.00 51 1017.4
20260507104042 66 252 2.0 8.0 0.00 0.00 0.00 52 1017.3
20260507103544 66 0 1.0 8.0 0.00 0.00 0.00 51 1017.2
20260507103053 66 293 2.0 10.0 0.00 0.00 0.00 52 1016.9
20260507102543 66 9 2.0 10.0 0.00 0.00 0.00 53 1017.0
20260507102044 66 40 3.0 10.0 0.00 0.00 0.00 52 1016.9
20260507101552 67 326 1.0 7.0 0.00 0.00 0.00 52 1016.8
20260507101045 67 271 1.0 7.0 0.00 0.00 0.00 51 1016.8
20260507100543 67 67 2.0 7.0 0.00 0.00 0.00 50 1016.9
20260507100057 67 291 2.0 7.0 0.00 0.00 0.00 50 1017.1
20260507095543 67 248 2.0 7.0 0.00 0.00 0.00 52 1017.1
20260507095042 67 319 1.0 5.0 0.00 0.00 0.00 50 1017.0
20260507094554 67 270 1.0 5.0 0.00 0.00 0.00 51 1016.8
20260507094042 67 244 0.0 8.0 0.00 0.00 0.00 52 1016.7
20260507093542 67 309 2.0 8.0 0.00 0.00 0.00 51 1016.6
20260507093052 68 319 1.0 10.0 0.00 0.00 0.00 51 1016.7
20260507092544 68 311 2.0 10.0 0.00 0.00 0.00 49 1016.9
20260507092046 68 275 2.0 7.0 0.00 0.00 0.00 49 1016.9
20260507091554 68 310 3.0 7.0 0.00 0.00 0.00 50 1016.8
20260507091047 68 0 0.0 7.0 0.00 0.00 0.00 51 1016.6
20260507090543 68 309 1.0 7.0 0.00 0.00 0.00 52 1016.5
20260507090056 68 281 1.0 5.0 0.00 0.00 0.00 51 1016.3
20260507085543 68 0 0.0 5.0 0.00 0.00 0.00 50 1016.3
20260507085043 69 326 1.0 4.0 0.00 0.00 0.00 50 1016.2
20260507084555 69 284 1.0 4.0 0.00 0.00 0.00 51 1016.2
20260507084042 69 329 0.0 9.0 0.00 0.00 0.00 50 1016.1
20260507083544 69 359 1.0 9.0 0.00 0.00 0.00 50 1016.0
20260507083056 69 248 2.0 7.0 0.00 0.00 0.00 48 1015.8
20260507082544 70 317 2.0 7.0 0.00 0.00 0.00 49 1015.8
20260507082046 70 283 2.0 7.0 0.00 0.00 0.00 48 1015.9
20260507081552 70 284 2.0 7.0 0.00 0.00 0.00 47 1015.9
20260507081044 70 278 2.0 7.0 0.00 0.00 0.00 48 1015.8
20260507080544 70 306 2.0 6.0 0.00 0.00 0.00 47 1015.7
20260507080121 71 0 0.0 6.0 0.00 0.00 0.00 46 1015.8
20260507075546 71 168 3.0 9.0 0.00 0.00 0.00 46 1015.8
20260507075043 71 221 2.0 9.0 0.00 0.00 0.00 47 1015.6
20260507074557 71 0 2.0 10.0 0.00 0.00 0.00 47 1015.4
20260507074042 71 319 2.0 10.0 0.00 0.00 0.00 47 1015.4
20260507073543 71 335 2.0 10.0 0.00 0.00 0.00 46 1015.4
20260507073059 71 323 2.0 10.0 0.00 0.00 0.00 49 1015.4
20260507072543 72 304 2.0 10.0 0.00 0.00 0.00 49 1015.3
20260507072046 72 290 3.0 10.0 0.00 0.00 0.00 47 1015.1
20260507071601 72 341 1.0 10.0 0.00 0.00 0.00 47 1015.1
20260507071043 72 32 1.0 9.0 0.00 0.00 0.00 49 1015.2
20260507070545 72 314 0.0 9.0 0.00 0.00 0.00 51 1015.1
20260507070051 71 293 1.0 4.0 0.00 0.00 0.00 53 1015.0
20260507065543 72 350 1.0 2.0 0.00 0.00 0.00 55 1014.9
20260507065044 72 340 0.0 2.0 0.00 0.00 0.00 53 1014.8
20260507064557 72 320 0.0 5.0 0.00 0.00 0.00 54 1014.7
20260507064044 73 293 0.0 5.0 0.00 0.00 0.00 52 1014.6
20260507063544 73 290 1.0 4.0 0.00 0.00 0.00 48 1014.5
20260507063051 73 294 1.0 7.0 0.00 0.00 0.00 50 1014.5
20260507062543 73 343 1.0 7.0 0.00 0.00 0.00 49 1014.4
20260507062043 73 246 2.0 7.0 0.00 0.00 0.00 47 1014.5
20260507061554 73 321 2.0 5.0 0.00 0.00 0.00 49 1014.4
20260507061042 74 319 2.0 5.0 0.00 0.00 0.00 48 1014.3
20260507060543 74 184 1.0 7.0 0.00 0.00 0.00 48 1014.4
20260507060053 74 226 1.0 10.0 0.00 0.00 0.00 48 1014.4
20260507055543 74 305 2.0 10.0 0.00 0.00 0.00 47 1014.4
20260507055045 74 320 1.0 7.0 0.00 0.00 0.00 47 1014.3
20260507054555 74 8 2.0 7.0 0.00 0.00 0.00 48 1014.3
20260507054043 74 318 1.0 7.0 0.00 0.00 0.00 48 1014.3
20260507053543 74 242 1.0 4.0 0.00 0.00 0.00 50 1014.3
20260507053055 74 326 0.0 7.0 0.00 0.00 0.00 51 1014.1
20260507052545 74 315 1.0 7.0 0.00 0.00 0.00 51 1014.1
20260507052043 75 261 1.0 7.0 0.00 0.00 0.00 49 1014.1
20260507051549 75 283 0.0 6.0 0.00 0.00 0.00 55 1014.2
20260507051044 75 239 1.0 6.0 0.00 0.00 0.00 55 1014.3
20260507050545 75 262 2.0 6.0 0.00 0.00 0.00 53 1014.2
20260507050053 75 256 0.0 6.0 0.00 0.00 0.00 56 1014.2
20260507045544 75 30 1.0 9.0 0.00 0.00 0.00 56 1014.3
20260507045043 75 308 1.0 10.0 0.00 0.00 0.00 53 1014.3
20260507044549 75 292 1.0 10.0 0.00 0.00 0.00 57 1014.4
20260507044047 76 297 1.0 5.0 0.00 0.00 0.00 56 1014.3
20260507043545 76 278 1.0 5.0 0.00 0.00 0.00 59 1014.6
20260507043049 76 319 0.0 4.0 0.00 0.00 0.00 60 1014.6
20260507042544 76 0 1.0 4.0 0.00 0.00 0.00 58 1014.6
20260507042044 76 323 1.0 4.0 0.00 0.00 0.00 59 1014.7
20260507041551 76 316 1.0 2.0 0.00 0.00 0.00 57 1014.6
20260507041044 76 326 1.0 5.0 0.00 0.00 0.00 59 1014.6
20260507040545 76 312 2.0 5.0 0.00 0.00 0.00 58 1014.7
20260507040059 76 274 1.0 5.0 0.00 0.00 0.00 57 1014.6
20260507035544 76 218 2.0 5.0 0.00 0.00 0.00 59 1014.7
20260507035043 76 312 1.0 4.0 0.00 0.00 0.00 58 1014.6
20260507034556 76 0 2.0 6.0 0.00 0.00 0.00 59 1014.6
20260507034044 77 254 2.0 7.0 0.00 0.00 0.00 58 1014.7
20260507033545 76 327 1.0 7.0 0.00 0.00 0.00 61 1014.7
20260507033051 76 240 1.0 6.0 0.00 0.00 0.00 60 1014.7
20260507032545 76 310 1.0 10.0 0.00 0.00 0.00 61 1014.7
20260507032044 76 254 0.0 10.0 0.00 0.00 0.00 60 1014.7
20260507031548 76 0 2.0 10.0 0.00 0.00 0.00 61 1014.9
20260507031044 76 229 0.0 6.0 0.00 0.00 0.00 62 1014.8
20260507030545 75 285 2.0 6.0 0.00 0.00 0.00 62 1014.9
20260507030054 76 279 1.0 7.0 0.00 0.00 0.00 63 1015.0
20260507025544 76 305 1.0 7.0 0.00 0.00 0.00 62 1015.0
20260507025044 76 238 2.0 7.0 0.00 0.00 0.00 63 1015.0
20260507024545 76 300 1.0 6.0 0.00 0.00 0.00 63 1014.9
20260507024043 76 278 1.0 5.0 0.00 0.00 0.00 63 1014.9
20260507023547 76 330 2.0 4.0 0.00 0.00 0.00 64 1014.9
20260507023052 77 262 1.0 5.0 0.00 0.00 0.00 63 1015.0
20260507022544 77 231 1.0 5.0 0.00 0.00 0.00 63 1015.1
20260507022045 78 271 0.0 4.0 0.00 0.00 0.00 64 1015.3
20260507021549 78 302 1.0 4.0 0.00 0.00 0.00 65 1015.4
20260507021044 78 281 2.0 4.0 0.00 0.00 0.00 63 1015.5
20260507020545 78 243 2.0 11.0 0.00 0.00 0.00 64 1015.6
20260507015544 78 240 2.0 5.0 0.00 0.00 0.00 65 1015.9
20260507015044 77 274 2.0 5.0 0.00 0.00 0.00 67 1015.9
20260507014606 77 307 2.0 5.0 0.00 0.00 0.00 69 1015.9
20260507014042 77 283 1.0 4.0 0.00 0.00 0.00 71 1015.9
20260507013545 77 295 1.0 7.0 0.00 0.00 0.00 71 1015.9
20260507013050 76 153 1.0 7.0 0.00 0.00 0.00 72 1016.0
20260507012545 75 321 1.0 7.0 0.00 0.00 0.00 73 1016.2
20260507012044 75 310 2.0 7.0 0.00 0.00 0.00 75 1016.2
20260507011602 74 349 1.0 7.0 0.00 0.00 0.00 78 1016.3
20260507011044 74 222 2.0 10.0 0.00 0.00 0.00 78 1016.4
20260507010543 75 203 1.0 10.0 0.00 0.00 0.00 77 1016.3
20260507010055 74 248 2.0 10.0 0.00 0.00 0.00 78 1016.6
20260507005545 75 314 1.0 9.0 0.00 0.00 0.00 76 1016.6
20260507005044 74 0 1.0 6.0 0.00 0.00 0.00 82 1016.4
20260507004556 73 0 0.0 6.0 0.00 0.00 0.00 82 1016.5
20260507004042 73 0 1.0 6.0 0.00 0.00 0.00 82 1016.6
20260507003547 72 334 0.0 4.0 0.00 0.00 0.00 85 1016.7
20260507003056 72 235 0.0 4.0 0.00 0.00 0.00 85 1016.7
20260507002542 71 257 1.0 6.0 0.00 0.00 0.00 86 1016.9
20260507002044 71 326 0.0 6.0 0.00 0.00 0.00 87 1016.8
20260507001613 71 0 1.0 5.0 0.00 0.00 0.00 87 1017.0
20260507001043 71 347 1.0 3.0 0.00 0.00 0.00 88 1017.1
20260507000546 70 339 0.0 3.0 0.00 0.00 0.00 89 1016.9
20260507000058 70 341 1.0 4.0 0.00 0.00 0.00 88 1017.2
20260506235545 70 204 0.0 4.0 0.00 0.00 0.00 89 1017.2
20260506235042 70 311 1.0 4.0 0.00 0.00 0.00 89 1017.4
20260506234558 70 276 0.0 4.0 0.00 0.00 0.00 90 1017.4
20260506234044 70 51 1.0 4.0 0.00 0.00 0.00 89 1017.6
20260506233543 70 326 0.0 2.0 0.00 0.00 0.00 91 1017.4
20260506233049 69 252 0.0 2.0 0.00 0.00 0.00 93 1017.7
20260506232542 69 0 0.0 2.0 0.00 0.00 0.00 94 1017.5
20260506232044 68 323 0.0 3.0 0.00 0.00 0.00 94 1017.7
20260506231550 68 0 0.0 3.0 0.00 0.00 0.00 95 1017.7
20260506231040 68 0 0.0 1.0 0.00 0.00 0.00 96 1017.8
20260506230544 68 0 0.0 1.0 0.00 0.00 0.00 97 1017.7
20260506230059 68 337 0.0 2.0 0.00 0.00 0.00 97 1017.6
20260506225548 67 338 0.0 2.0 0.00 0.00 0.00 98 1017.6
20260506225044 67 0 0.0 2.0 0.00 0.00 0.00 98 1017.7
20260506224552 66 261 0.0 4.0 0.00 0.00 0.00 98 1017.8
20260506224043 66 10 0.0 7.0 0.00 0.00 0.00 98 1017.8
20260506223543 66 303 0.0 7.0 0.00 0.00 0.00 98 1017.7
20260506223049 65 313 1.0 7.0 0.00 0.00 0.00 98 1017.6
20260506222544 65 263 2.0 5.0 0.00 0.00 0.00 98 1017.8
20260506222048 65 255 0.0 3.0 0.00 0.00 0.00 98 1017.6
20260506221551 65 20 0.0 3.0 0.00 0.00 0.00 98 1017.6
20260506221041 65 0 0.0 0.0 0.00 0.00 0.00 98 1017.5
20260506220544 65 0 0.0 0.0 0.00 0.00 0.00 98 1017.5
20260506215544 65 0 0.0 0.0 0.00 0.00 0.00 98 1017.5
20260506215046 64 0 0.0 0.0 0.00 0.00 0.00 98 1017.5
20260506214552 64 0 0.0 0.0 0.00 0.00 0.00 98 1017.4
20260506214044 64 0 0.0 0.0 0.00 0.00 0.00 98 1017.3
20260506213543 64 0 0.0 0.0 0.00 0.00 0.00 98 1017.3
20260506213100 64 0 0.0 0.0 0.00 0.00 0.00 98 1017.2
20260506212544 63 0 0.0 0.0 0.00 0.00 0.00 98 1017.1
20260506212045 63 0 0.0 0.0 0.00 0.00 0.00 98 1017.2
20260506211557 63 0 0.0 0.0 0.00 0.00 0.00 98 1017.2
20260506211044 63 0 0.0 0.0 0.00 0.00 0.00 98 1017.1
20260506210544 63 0 0.0 0.0 0.00 0.00 0.00 98 1017.0
20260506210117 63 0 0.0 0.0 0.00 0.00 0.00 98 1016.9
20260506205544 62 0 0.0 0.0 0.00 0.00 0.00 98 1016.9
20260506205045 62 0 0.0 0.0 0.00 0.00 0.00 98 1017.0
20260506204555 62 0 0.0 0.0 0.00 0.00 0.00 98 1017.0
20260506204043 62 0 0.0 0.0 0.00 0.00 0.00 98 1016.9
20260506203544 62 0 0.0 0.0 0.00 0.00 0.00 98 1016.8
20260506203139 61 0 0.0 0.0 0.00 0.00 0.00 98 1016.8
20260506202544 61 0 0.0 0.0 0.00 0.00 0.00 98 1016.9
20260506202044 61 0 0.0 0.0 0.00 0.00 0.00 98 1016.9
20260506201552 61 0 0.0 0.0 0.00 0.00 0.00 98 1016.8
20260506201042 61 0 0.0 0.0 0.00 0.00 0.00 98 1017.0
20260506200543 61 0 0.0 0.0 0.00 0.00 0.00 98 1016.9
20260506200059 61 0 0.0 0.0 0.00 0.00 0.00 98 1016.8
20260506195541 61 0 0.0 0.0 0.00 0.00 0.00 98 1016.8
20260506195043 61 0 0.0 0.0 0.00 0.00 0.00 98 1016.7
20260506194549 61 0 0.0 0.0 0.00 0.00 0.00 98 1016.7
20260506194044 61 0 0.0 0.0 0.00 0.00 0.00 98 1016.6
20260506193545 61 0 0.0 0.0 0.00 0.00 0.00 98 1016.5
20260506193052 61 0 0.0 0.0 0.00 0.00 0.00 98 1016.4
20260506192545 61 0 0.0 0.0 0.00 0.00 0.00 98 1016.4
20260506192044 61 0 0.0 0.0 0.00 0.00 0.00 97 1016.3
20260506191559 61 0 0.0 0.0 0.00 0.00 0.00 97 1016.2
20260506191044 61 0 0.0 0.0 0.00 0.00 0.00 97 1016.2
20260506190543 61 0 0.0 0.0 0.00 0.00 0.00 97 1016.3
20260506190056 61 0 0.0 0.0 0.00 0.00 0.00 97 1016.2
20260506185543 61 0 0.0 0.0 0.00 0.00 0.00 97 1016.2
20260506185043 62 0 0.0 0.0 0.00 0.00 0.00 97 1016.1
20260506184559 62 0 0.0 0.0 0.00 0.00 0.00 98 1016.1
20260506184045 62 0 0.0 0.0 0.00 0.00 0.00 98 1016.1
20260506183544 62 0 0.0 0.0 0.00 0.00 0.00 97 1016.2
20260506183101 62 0 0.0 0.0 0.00 0.00 0.00 97 1016.4
20260506182541 62 0 0.0 0.0 0.00 0.00 0.00 98 1016.4
20260506182044 61 0 0.0 0.0 0.00 0.00 0.00 97 1016.5
20260506181548 61 0 0.0 0.0 0.00 0.00 0.00 97 1016.5
20260506181044 61 0 0.0 0.0 0.00 0.00 0.00 97 1016.4
20260506180544 62 0 0.0 0.0 0.00 0.00 0.00 97 1016.4
20260506180054 62 0 0.0 0.0 0.00 0.00 0.00 97 1016.4
20260506175543 62 0 0.0 0.0 0.00 0.00 0.00 97 1016.6
20260506175048 62 0 0.0 0.0 0.00 0.00 0.00 97 1016.4
20260506174605 62 0 0.0 0.0 0.00 0.00 0.00 97 1016.3
20260506174047 62 0 0.0 0.0 0.00 0.00 0.00 97 1016.4
20260506173542 62 0 0.0 0.0 0.00 0.00 0.00 97 1016.4
20260506173057 62 0 0.0 0.0 0.00 0.00 0.00 97 1016.5
20260506172543 63 0 0.0 0.0 0.00 0.00 0.00 97 1016.4
20260506172044 63 0 0.0 0.0 0.00 0.00 0.00 98 1016.4
20260506171557 62 0 0.0 0.0 0.00 0.00 0.00 97 1016.5
20260506171044 62 0 0.0 0.0 0.00 0.00 0.00 97 1016.5
20260506170542 63 0 0.0 0.0 0.00 0.00 0.00 97 1016.7
20260506170052 63 0 0.0 0.0 0.00 0.00 0.00 97 1016.9
20260506165545 63 0 0.0 0.0 0.00 0.03 0.00 97 1016.7
20260506165045 63 0 0.0 0.0 0.00 0.03 0.00 97 1016.8
20260506164557 63 0 0.0 0.0 0.00 0.03 0.00 97 1016.8
20260506164042 63 0 0.0 0.0 0.00 0.03 0.00 97 1017.0
20260506163541 63 0 0.0 0.0 0.00 0.03 0.00 97 1016.8
20260506163104 63 0 0.0 0.0 0.00 0.03 0.00 97 1017.0
20260506162543 63 0 0.0 0.0 0.00 0.03 0.00 97 1016.9
20260506162044 63 0 0.0 0.0 0.00 0.03 0.00 97 1017.0
20260506161552 63 0 0.0 0.0 0.00 0.03 0.00 97 1016.8
20260506161044 62 0 0.0 0.0 0.00 0.03 0.00 97 1016.8
20260506160543 62 0 0.0 0.0 0.00 0.03 0.00 97 1016.8
20260506160054 62 0 0.0 0.0 0.00 0.03 0.00 97 1016.9
20260506155543 62 0 0.0 0.0 0.00 0.15 0.00 97 1017.0
20260506155043 63 0 0.0 0.0 0.00 0.15 0.00 97 1017.0
20260506154558 63 0 0.0 0.0 0.00 0.15 0.00 97 1017.1
20260506154048 63 0 0.0 0.0 0.00 0.15 0.00 97 1017.0
20260506153544 63 0 0.0 0.0 0.00 0.15 0.00 97 1016.9
20260506153122 62 0 0.0 0.0 0.00 0.15 0.00 97 1016.8
20260506152545 62 0 0.0 0.0 0.00 0.15 0.00 97 1017.0
20260506152043 62 0 0.0 0.0 0.00 0.15 0.00 97 1017.1
20260506151551 62 0 0.0 0.0 0.00 0.15 0.00 97 1017.1
20260506151041 62 0 0.0 0.0 0.00 0.15 0.00 97 1017.1
20260506150541 62 0 0.0 0.0 0.00 0.15 0.00 97 1017.1
20260506150055 62 0 0.0 0.0 0.00 0.15 0.00 97 1017.2
20260506145546 62 0 0.0 0.0 0.00 0.15 0.00 97 1017.2
20260506145041 62 0 0.0 0.0 0.00 0.15 0.00 97 1017.2
20260506144552 62 0 0.0 0.0 0.00 0.15 0.00 97 1017.3
20260506144043 62 0 0.0 0.0 0.00 0.15 0.00 97 1017.3
20260506143542 62 0 0.0 0.0 0.00 0.15 0.00 97 1017.4
20260506143053 62 0 0.0 0.0 0.00 0.15 0.00 97 1017.5
20260506142545 62 0 0.0 0.0 0.00 0.15 0.00 96 1017.5
20260506142042 62 0 0.0 0.0 0.00 0.15 0.00 96 1017.5
20260506141554 63 0 0.0 0.0 0.00 0.15 0.00 96 1017.5
20260506141044 63 0 0.0 0.0 0.00 0.15 0.00 97 1017.5
20260506140547 63 0 0.0 0.0 0.00 0.15 0.00 97 1017.7
20260506140050 63 0 0.0 0.0 0.00 0.15 0.00 96 1017.7
20260506135541 63 0 0.0 0.0 0.00 0.15 0.15 96 1017.7
20260506135041 63 0 0.0 0.0 0.00 0.15 0.15 96 1017.7
20260506134600 63 0 0.0 0.0 0.00 0.15 0.15 96 1017.8
20260506134045 63 0 0.0 0.0 0.00 0.15 0.15 96 1017.7
20260506133542 63 0 0.0 0.0 0.00 0.15 0.15 96 1017.7
20260506133053 63 0 0.0 0.0 0.00 0.15 0.15 96 1017.7
20260506132545 63 0 0.0 0.0 0.00 0.15 0.15 96 1017.8
20260506132041 63 0 0.0 0.0 0.00 0.15 0.15 96 1017.9
20260506131601 63 0 0.0 0.0 0.00 0.15 0.15 96 1017.8
20260506131041 63 0 0.0 0.0 0.00 0.15 0.15 96 1017.9
20260506130541 63 0 0.0 0.0 0.00 0.15 0.15 96 1018.0
20260506130056 63 0 0.0 0.0 0.00 0.15 0.15 96 1018.0
20260506125543 63 0 0.0 0.0 0.00 0.15 0.15 96 1018.0
20260506125041 63 0 0.0 0.0 0.00 0.15 0.15 95 1018.0